Weather reports worldwide

Advertisment
Murcia/Alcantarilla, Spain (8429): temperature & dewpoint: 11.01.2021 23:00:00 - 17.01.2021 23:00:00 (CET)Murcia/Alcantarilla, Spain (8429): wind speed: 11.01.2021 23:00:00 - 17.01.2021 23:00:00 (CET)Murcia/Alcantarilla, Spain (8429): wind direction: 11.01.2021 23:00:00 - 17.01.2021 23:00:00 (CET)Murcia/Alcantarilla, Spain (8429): reduced air pressure: 11.01.2021 23:00:00 - 17.01.2021 23:00:00 (CET)Murcia/Alcantarilla, Spain (8429): visibility: 11.01.2021 23:00:00 - 17.01.2021 23:00:00 (CET)
Date & Time tt [°C] td [°C] ff [km/h] ff [kn] dd ppp [hPa] vv [km]
17.01.2021 23:00:00 - - - - - - -
17.01.2021 22:00:00 - - - - - - -
17.01.2021 21:00:00 - - - - - - -
17.01.2021 20:00:00 - - - - - - -
17.01.2021 19:00:00 13,8 -1,0 9 5 NW 1025,6 30
17.01.2021 18:00:00 - - - - - - -
17.01.2021 17:00:00 - - - - - - -
17.01.2021 16:00:00 20,1 -3,5 4 2 N 1025,0 30
17.01.2021 15:00:00 - - - - - - -
17.01.2021 14:00:00 - - - - - - -
17.01.2021 13:00:00 17,0 0,2 9 5 SW 1027,2 30
17.01.2021 12:00:00 - - - - - - -
17.01.2021 11:00:00 - - - - - - -
17.01.2021 10:00:00 5,9 1,2 11 6 SW 1029,0 5
17.01.2021 09:00:00 - - - - - - -
17.01.2021 08:00:00 - - - - - - -
17.01.2021 07:00:00 1,3 -0,2 9 5 WSW 1028,9 25
17.01.2021 06:00:00 - - - - - - -
17.01.2021 05:00:00 - - - - - - -
17.01.2021 04:00:00 - - - - - - -
17.01.2021 03:00:00 - - - - - - -
17.01.2021 02:00:00 - - - - - - -
17.01.2021 01:00:00 - - - - - - -
17.01.2021 00:00:00 - - - - - - -
16.01.2021 23:00:00 - - - - - - -
16.01.2021 22:00:00 - - - - - - -
16.01.2021 21:00:00 - - - - - - -
16.01.2021 20:00:00 - - - - - - -
16.01.2021 19:00:00 9,7 0,6 8 4 SW 1027,9 30
16.01.2021 18:00:00 - - - - - - -
16.01.2021 17:00:00 - - - - - - -
16.01.2021 16:00:00 15,2 -3,2 2 1 W 1027,1 30
16.01.2021 15:00:00 - - - - - - -
16.01.2021 14:00:00 - - - - - - -
16.01.2021 13:00:00 12,9 -2,6 4 2 N 1027,8 30
16.01.2021 12:00:00 - - - - - - -
16.01.2021 11:00:00 - - - - - - -
16.01.2021 10:00:00 7,8 -1,2 2 1 SSW 1027,7 30
16.01.2021 09:00:00 - - - - - - -
16.01.2021 08:00:00 - - - - - - -
16.01.2021 07:00:00 9,3 -3,6 22 12 NNW 1024,5 25
16.01.2021 06:00:00 - - - - - - -
16.01.2021 05:00:00 - - - - - - -
16.01.2021 04:00:00 - - - - - - -
16.01.2021 03:00:00 - - - - - - -
16.01.2021 02:00:00 - - - - - - -
16.01.2021 01:00:00 - - - - - - -
16.01.2021 00:00:00 - - - - - - -
15.01.2021 23:00:00 - - - - - - -
15.01.2021 22:00:00 - - - - - - -
15.01.2021 21:00:00 - - - - - - -
15.01.2021 20:00:00 - - - - - - -
15.01.2021 19:00:00 13,0 -2,1 8 4 NNW 1023,7 30
15.01.2021 18:00:00 - - - - - - -
15.01.2021 17:00:00 - - - - - - -
15.01.2021 16:00:00 17,5 -0,7 5 3 N 1023,0 30
15.01.2021 15:00:00 - - - - - - -
15.01.2021 14:00:00 - - - - - - -
15.01.2021 13:00:00 16,0 2,1 4 2 N 1024,6 30
15.01.2021 12:00:00 - - - - - - -
15.01.2021 11:00:00 - - - - - - -
15.01.2021 10:00:00 10,0 1,6 4 2 N 1025,4 30
15.01.2021 09:00:00 - - - - - - -
15.01.2021 08:00:00 - - - - - - -
15.01.2021 07:00:00 5,6 -0,9 2 1 N 1024,7 30
15.01.2021 06:00:00 - - - - - - -
15.01.2021 05:00:00 - - - - - - -
15.01.2021 04:00:00 - - - - - - -
15.01.2021 03:00:00 - - - - - - -
15.01.2021 02:00:00 - - - - - - -
15.01.2021 01:00:00 - - - - - - -
15.01.2021 00:00:00 - - - - - - -
14.01.2021 23:00:00 - - - - - - -
14.01.2021 22:00:00 - - - - - - -
14.01.2021 21:00:00 - - - - - - -
14.01.2021 20:00:00 - - - - - - -
14.01.2021 19:00:00 13,6 0,9 8 4 NE 1023,0 20
14.01.2021 18:00:00 - - - - - - -
14.01.2021 17:00:00 - - - - - - -
14.01.2021 16:00:00 17,8 -4,2 4 2 N 1022,1 30
14.01.2021 15:00:00 - - - - - - -
14.01.2021 14:00:00 - - - - - - -
14.01.2021 13:00:00 15,0 -2,4 5 3 SSE 1024,3 30
14.01.2021 12:00:00 - - - - - - -
14.01.2021 11:00:00 - - - - - - -
14.01.2021 10:00:00 6,7 0,2 11 6 WSW 1025,8 30
14.01.2021 09:00:00 - - - - - - -
14.01.2021 08:00:00 - - - - - - -
14.01.2021 07:00:00 2,1 -0,6 11 6 SW 1026,4 30
14.01.2021 06:00:00 - - - - - - -
14.01.2021 05:00:00 - - - - - - -
14.01.2021 04:00:00 - - - - - - -
14.01.2021 03:00:00 - - - - - - -
14.01.2021 02:00:00 - - - - - - -
14.01.2021 01:00:00 - - - - - - -
14.01.2021 00:00:00 - - - - - - -
13.01.2021 23:00:00 - - - - - - -
13.01.2021 22:00:00 - - - - - - -
13.01.2021 21:00:00 - - - - - - -
13.01.2021 20:00:00 - - - - - - -
13.01.2021 19:00:00 10,6 0,6 8 4 W 1027,4 50
13.01.2021 18:00:00 - - - - - - -
13.01.2021 17:00:00 - - - - - - -
13.01.2021 16:00:00 16,0 -5,1 8 4 S 1026,5 50
13.01.2021 15:00:00 - - - - - - -
13.01.2021 14:00:00 - - - - - - -
13.01.2021 13:00:00 13,0 -4,1 4 2 N 1028,2 50
13.01.2021 12:00:00 - - - - - - -
13.01.2021 11:00:00 - - - - - - -
13.01.2021 10:00:00 4,4 1,1 4 2 SSW 1029,8 50
13.01.2021 09:00:00 - - - - - - -
13.01.2021 08:00:00 - - - - - - -
13.01.2021 07:00:00 2,7 -3,0 5 3 WSW 1028,8 50
13.01.2021 06:00:00 - - - - - - -
13.01.2021 05:00:00 - - - - - - -
13.01.2021 04:00:00 - - - - - - -
13.01.2021 03:00:00 - - - - - - -
13.01.2021 02:00:00 - - - - - - -
13.01.2021 01:00:00 - - - - - - -
13.01.2021 00:00:00 - - - - - - -
12.01.2021 23:00:00 - - - - - - -
12.01.2021 22:00:00 - - - - - - -
12.01.2021 21:00:00 - - - - - - -
12.01.2021 20:00:00 - - - - - - -
12.01.2021 19:00:00 8,0 -1,2 4 2 N 1028,1 40
12.01.2021 18:00:00 - - - - - - -
12.01.2021 17:00:00 - - - - - - -
12.01.2021 16:00:00 13,0 -0,3 9 5 WNW 1027,4 40
12.01.2021 15:00:00 - - - - - - -
12.01.2021 14:00:00 - - - - - - -
12.01.2021 13:00:00 11,1 -1,3 13 7 WNW 1028,4 50
12.01.2021 12:00:00 - - - - - - -
12.01.2021 11:00:00 - - - - - - -
12.01.2021 10:00:00 6,2 -1,4 9 5 W 1029,5 50
12.01.2021 09:00:00 - - - - - - -
12.01.2021 08:00:00 - - - - - - -
12.01.2021 07:00:00 1,2 -0,6 8 4 SW 1027,9 30
12.01.2021 06:00:00 - - - - - - -
12.01.2021 05:00:00 - - - - - - -
12.01.2021 04:00:00 - - - - - - -
12.01.2021 03:00:00 - - - - - - -
12.01.2021 02:00:00 - - - - - - -
12.01.2021 01:00:00 - - - - - - -
12.01.2021 00:00:00 - - - - - - -
11.01.2021 23:00:00 - - - - - - -

tt = temperature
td = dewpoint
ff = wind speed
dd = wind direction
ppp = reduced air pressure
vv = visibility

Next stations